This demonstration page uses our WeatherBlox Daily Observations layout. Learn more.

Left ArrowRight Arrow

40.92945, -100.16068

Hourly Observations for September 11, 2019

Temp ( °F °C ) Dew Point ( °F °C ) Humidity (%) Winds ( mph kmh ) Pressure ( in mb ) Visibility ( mi km ) Precip ( " mm )
12:15 am 00:15 Clear 74 23.2 66 19.1 78 78 SSE 16 26 29.78 1008 10 16 0.00 0.00
12:35 am 00:35 Clear 74 23.3 66 19 77 77 SSE 18 30 29.77 1008 10 16 0.00 0.00
12:55 am 00:55 Clear 74 23.1 66 18.9 77 77 SSE 16 26 29.78 1008 10 16 0.00 0.00
1:15 am 01:15 Clear 74 23.2 66 18.7 76 76 SSE 18 30 29.78 1008 10 16 0.00 0.00
1:35 am 01:35 Clear 73 23 66 18.7 77 77 SSE 16 26 29.78 1008 10 16 0.00 0.00
1:55 am 01:55 Clear 73 22.8 66 18.7 78 78 SSE 16 26 29.78 1008 10 16 0.00 0.00
2:15 am 02:15 Clear 73 22.5 65 18.6 79 79 SSE 14 22 29.79 1009 10 16 0.00 0.00
2:35 am 02:35 Clear 72 22.4 65 18.6 79 79 SSE 13 20 29.79 1009 10 16 0.00 0.00
2:50 am 02:50 Clear 72 22.3 65 18.6 80 80 SSE 10 17 29.79 1009 10 16 0.00 0.00
3:15 am 03:15 Clear 72 22.3 65 18.6 80 80 SE 12 19 29.78 1009 10 16 0.00 0.00
3:35 am 03:35 Clear 72 22.4 65 18.5 79 79 SE 9 15 29.78 1009 10 16 0.00 0.00
3:55 am 03:55 Clear 73 22.5 65 18.5 78 78 SE 9 15 29.79 1009 10 16 0.00 0.00
4:15 am 04:15 Clear 72 22.4 65 18.2 77 77 Calm 29.80 1009 10 16 0.00 0.00
4:35 am 04:35 Clear 70 21 66 18.7 87 87 NNE 5 7 29.83 1010 10 16 0.00 0.00
4:55 am 04:55 Partly Cloudy 70 21.1 66 18.7 86 86 N 8 13 29.84 1011 10 16 0.00 0.00
5:15 am 05:15 Mostly Cloudy 70 21.3 65 18.6 85 85 NE 8 13 29.83 1010 10 16 0.00 0.00
5:35 am 05:35 Mostly Cloudy 69 20.6 66 18.7 89 89 E 9 15 29.84 1010 10 16 0.00 0.00
5:55 am 05:55 Partly Cloudy 68 20 65 18.6 92 92 E 9 15 29.84 1011 10 16 0.00 0.00
6:15 am 06:15 Partly Cloudy 68 20.1 65 18.6 91 91 ENE 12 19 29.84 1011 10 16 0.00 0.00
6:35 am 06:35 Partly Cloudy 67 19.5 65 18.2 92 92 ENE 12 19 29.85 1011 10 16 0.00 0.00
6:55 am 06:55 Clear 65 18.1 64 17.6 97 97 E 14 22 29.86 1011 10 16 0.00 0.00
7:15 am 07:15 Clear 64 18 64 17.5 97 97 E 12 19 29.87 1011 10 16 0.00 0.00
7:35 am 07:35 Sunny 64 18 64 17.7 98 98 E 10 17 29.87 1011 10 16 0.00 0.00
7:55 am 07:55 Partly Cloudy 65 18.1 64 17.8 98 98 E 12 19 29.87 1011 10 16 0.00 0.00
8:15 am 08:15 Partly Cloudy 66 18.7 64 18 96 96 E 12 19 29.86 1011 10 16 0.00 0.00
8:35 am 08:35 Sunny 68 19.8 65 18.5 92 92 E 13 20 29.85 1011 10 16 0.00 0.00
8:55 am 08:55 Sunny 69 20.7 66 18.8 89 89 E 12 19 29.85 1011 10 16 0.00 0.00
9:15 am 09:15 Sunny 72 22 67 19.2 84 84 E 13 20 29.84 1010 10 16 0.00 0.00
9:35 am 09:35 Sunny 73 22.6 67 19.3 82 82 ESE 13 20 29.83 1010 10 16 0.00 0.00
9:55 am 09:55 Sunny 74 23.5 66 18.8 75 75 SE 13 20 29.81 1010 10 16 0.00 0.00
10:15 am 10:15 Sunny 75 24.1 65 18.6 71 71 SE 13 20 29.81 1009 10 16 0.00 0.00
10:35 am 10:35 Sunny 76 24.7 66 18.9 70 70 SE 14 22 29.80 1009 10 16 0.00 0.00
10:55 am 10:55 Sunny 78 25.3 66 19.1 69 69 SE 14 22 29.79 1009 10 16 0.00 0.00
11:15 am 11:15 Sunny 79 26 66 19 65 65 SSE 13 20 29.78 1009 10 16 0.00 0.00
11:35 am 11:35 Sunny 80 26.6 66 19 63 63 SSE 12 19 29.78 1008 10 16 0.00 0.00
11:55 am 11:55 Sunny 81 27.1 67 19.2 62 62 SSE 12 19 29.76 1008 10 16 0.00 0.00
12:15 pm 12:15 Sunny 81 27.4 67 19.2 61 61 SSE 16 26 29.76 1008 10 16 0.00 0.00
12:35 pm 12:35 Sunny 82 28 67 19.4 60 60 S 16 26 29.76 1008 10 16 0.00 0.00
12:55 pm 12:55 Partly Cloudy 83 28.2 67 19.7 60 60 SSE 15 24 29.74 1007 10 16 0.00 0.00
1:15 pm 13:15 Partly Cloudy 84 28.9 68 19.8 58 58 SSE 16 26 29.74 1007 10 16 0.00 0.00
1:35 pm 13:35 Partly Cloudy 84 28.8 68 20.1 59 59 SSE 18 30 29.73 1007 10 16 0.00 0.00
1:55 pm 13:55 Partly Cloudy 84 29.1 68 20.1 58 58 SE 18 30 29.73 1007 10 16 0.00 0.00
2:15 pm 14:15 Partly Cloudy 85 29.6 68 20.1 57 57 SSE 18 30 29.72 1007 10 16 0.00 0.00
2:35 pm 14:35 Partly Cloudy 86 29.9 69 20.3 56 56 SSE 17 28 29.71 1006 10 16 0.00 0.00
2:55 pm 14:55 Partly Cloudy 87 30.5 69 20.4 55 55 SSE 17 28 29.70 1006 7 11 0.00 0.00
3:15 pm 15:15 Mostly Cloudy 87 30.3 68 20.1 54 54 SSE 14 22 29.69 1005 10 16 0.00 0.00
3:35 pm 15:35 Cloudy 87 30.8 69 20.5 54 54 S 17 28 29.68 1005 10 16 0.00 0.00
3:55 pm 15:55 Mostly Cloudy 90 32.2 69 20.7 51 51 S 20 31 29.65 1004 10 16 0.00 0.00
4:15 pm 16:15 Mostly Cloudy 89 31.9 69 20.8 52 52 SSE 20 31 29.65 1004 10 16 0.00 0.00
4:35 pm 16:35 Mostly Cloudy 90 32.3 70 21 51 51 SSE 17 28 29.64 1004 10 16 0.00 0.00
4:55 pm 16:55 Mostly Cloudy 87 30.6 68 20 53 53 SSE 18 30 29.66 1004 10 16 0.00 0.00
5:15 pm 17:15 Partly Cloudy with Nearby Thunderstorms 88 31.1 67 19.6 50 50 SSE 22 35 29.65 1004 10 16 0.00 0.00
5:35 pm 17:35 Partly Cloudy with Nearby Thunderstorms 86 30.1 67 19.7 54 54 SSE 18 30 29.65 1004 10 16 0.00 0.00
5:55 pm 17:55 Sunny with Nearby Thunderstorms 85 29.7 67 19.3 54 54 SSE 18 30 29.64 1004 10 16 0.00 0.00
6:15 pm 18:15 Sunny 87 30.7 67 19.2 50 50 SSE 22 35 29.62 1003 10 16 0.00 0.00
6:35 pm 18:35 Sunny 86 29.9 66 18.9 52 52 SSE 24 39 29.63 1003 10 16 0.00 0.00
6:55 pm 18:55 Sunny with Nearby Thunderstorms 85 29.6 66 19 53 53 SSE 16 26 29.64 1004 10 16 0.00 0.00
7:15 pm 19:15 Sunny 83 28.3 66 19 57 57 SSE 14 22 29.65 1004 10 16 0.00 0.00
7:35 pm 19:35 Sunny 82 27.7 65 18.6 58 58 SSE 12 19 29.65 1004 10 16 0.00 0.00
7:55 pm 19:55 Sunny 81 27.4 65 18.6 59 59 SSE 13 20 29.66 1004 10 16 0.00 0.00
8:15 pm 20:15 Clear 80 26.7 66 19 63 63 SSE 16 26 29.67 1005 10 16 0.00 0.00
8:35 pm 20:35 Clear 80 26.5 66 18.7 62 62 SSE 17 28 29.67 1005 10 16 0.00 0.00
8:55 pm 20:55 Clear 79 26.3 65 18.6 63 63 SSE 17 28 29.66 1004 10 16 0.00 0.00
9:15 pm 21:15 Clear 79 26.1 65 18.5 63 63 SSE 17 28 29.66 1004 10 16 0.00 0.00
9:35 pm 21:35 Clear 79 26.1 65 18.5 63 63 SE 18 30 29.64 1004 10 16 0.00 0.00
9:55 pm 21:55 Clear 79 26 65 18.5 63 63 SSE 21 33 29.64 1004 10 16 0.00 0.00
10:15 pm 22:15 Clear 79 26.1 65 18.5 63 63 SSE 23 37 29.62 1003 10 16 0.00 0.00
10:35 pm 22:35 Clear 79 25.9 65 18.4 63 63 S 24 39 29.65 1004 10 16 0.00 0.00
10:55 pm 22:55 Clear 78 25.7 65 18.3 64 64 S 21 33 29.65 1004 10 16 0.00 0.00
11:15 pm 23:15 Clear 78 25.5 65 18.3 64 64 S 16 26 29.68 1005 10 16 0.00 0.00
11:35 pm 23:35 Mostly Cloudy 78 25.6 65 18.3 64 64 W 33 54 29.76 1008 10 16 0.00 0.00
11:55 pm 23:55 Cloudy with Light Rain 68 20.2 64 17.5 85 85 NNW 18 30 29.81 1010 10 16 0.00 0.00

Powered by AerisWeather